Кочмес

Россия / Республика Коми     66°21′35″N   60°00′52″E
темп.,
°C
ветер,
м/с
пор.,
м/с
влажн.,
%
обл.,
%
осадки,
мм/ч
давл.,
гПа
погр.,
м
11 мая, вт
вт1100:00+5зюз347886 0.0 102544
03:00+3юз468752 0.0 1026113
06:00+6юз466998 0.0 1025310
09:00+9юз6751100 0.0 1025695
12:00+11юз684156 0.0 10241623
15:00+12юз81039100 0.0 10232037
18:00+9зюз71073100 0.1 10231287
21:00+8зюз5880100 0.3 1024737
12 мая, ср
ср1200:00+7зюз3582100 0.0 1023171
03:00+6ююз4687100 0.0 1023197
06:00+6ююз4893100 1.0 1021279
09:00+7ююз61192100 1.3 1019435
12:00+9юз71391100 0.3 1018609
15:00+12юз61086100 0.4 1018313
18:00+11зсз71282100 1.2 1019518
21:00+8сз71277100 1.2 1022697
13 мая, чт
чт1300:00+5сз5982100 0.0 1025560
03:00+4ссз468566 0.0 1027407
06:00+4ссз237697 0.0 1028683
09:00+6юз126469 0.0 1028800
12:00+9ю4457100 0.0 1026799
15:00+11ю4751100 0.0 1023894
18:00+13ююз58635 0.0 1019237
21:00+12юз6118464 1.1 1015159
14 мая, пт
пт1400:00+13зюз51079100 0.1 1012133
03:00+13з5881100 0.1 101295
06:00+14зсз6106928 0.0 1013630
09:00+13сз7972100 0.0 1014934
12:00+8с6774100 0.0 1017504
15:00+8св4466100 0.0 1019651
18:00+6всв4577100 0.1 1018358
21:00+6в3680100 0.1 1018288
15 мая, сб
сб1500:00+5всв6883100 0.0 1016334
03:00+4всв7117962 0.1 1016296
06:00+4всв71089100 1.4 1015367
09:00+4всв7984100 1.4 1015373
12:00+7св5570100 0.0 1016572
15:00+7св5671100 0.0 1016528
18:00+5св6786100 2.3 1016369
21:00+3всв6891100 4.3 1015347